EW8920 Duxbury MA US current weather conditions

sailwx.info

Wind from 046 at 23 knots gusting 33

Air temperature 5.0° C
Dewpoint 4.0° C

Last reported at 2020-Apr-04 10:10 UTC.
Time now 2020-Apr-04 10:50 UTC

Location: N 42°00' W 070°36'.
View on Google Maps.

See reports from other nearby stations

  
Tides and Currents Weather Stations Pressure Air Temp Water Temp Dewpoint Dewpoint Depression Visibility Wind Speed Wind Dir Waves Ship Positions
date/time (UTC)wind fromknots sea level pressurealtimeterstation pressurevisibilityair tempwater tempwave heightnotes
2020-Apr-04 10:10 046 23 gusting 33 5.0
2020-Apr-04 10:00 054 22 gusting 32 5.0
2020-Apr-04 09:50 046 23 gusting 35 5.0
2020-Apr-04 09:40 046 22 gusting 33 5.0
2020-Apr-04 09:30 043 20 gusting 33 5.0
2020-Apr-04 09:20 047 23 gusting 32 5.0
2020-Apr-04 09:10 049 24 gusting 33 5.0
2020-Apr-04 09:00 049 23 gusting 31 5.0
2020-Apr-04 08:50 051 23 gusting 33 5.0
2020-Apr-04 08:40 048 24 gusting 33 5.0
2020-Apr-04 08:30 050 26 gusting 33 5.0
2020-Apr-04 08:20 042 19 gusting 31 5.6
2020-Apr-04 08:10 046 21 gusting 31 5.6
2020-Apr-04 08:00 042 19 gusting 31 5.6
2020-Apr-04 07:50 041 19 gusting 32 5.6
2020-Apr-04 07:40 040 21 gusting 28 5.6
2020-Apr-04 07:30 042 19 gusting 29 5.6
2020-Apr-04 07:20 043 21 gusting 28 5.6
2020-Apr-04 07:10 040 20 gusting 29 5.6
2020-Apr-04 07:00 041 20 gusting 29 5.6
2020-Apr-04 06:50 038 19 gusting 26 5.6
2020-Apr-04 06:40 043 22 gusting 29 5.6
2020-Apr-04 06:30 043 19 gusting 27 5.6
2020-Apr-04 06:20 043 20 gusting 28 5.0
2020-Apr-04 06:10 044 20 gusting 26 5.0
2020-Apr-04 06:00 038 19 gusting 29 5.0
2020-Apr-04 05:50 039 21 gusting 28 5.0
2020-Apr-04 05:40 043 20 gusting 28 5.0
2020-Apr-04 05:30 039 21 gusting 31 5.0
2020-Apr-04 05:20 040 19 gusting 28 5.0
2020-Apr-04 05:10 045 19 gusting 30 5.0
2020-Apr-04 05:00 041 21 gusting 28 5.0
2020-Apr-04 04:50 043 20 gusting 30 5.0
2020-Apr-04 04:40 041 19 gusting 30 5.6
2020-Apr-04 04:30 046 21 gusting 30 5.6
2020-Apr-04 04:20 042 18 gusting 30 5.6
2020-Apr-04 04:10 040 21 gusting 30 5.6
2020-Apr-04 04:00 044 20 gusting 30 5.6
2020-Apr-04 03:50 046 19 gusting 33 5.6
2020-Apr-04 03:40 045 19 gusting 30 5.6
2020-Apr-04 03:30 042 21 gusting 33 5.6
2020-Apr-04 03:20 048 23 gusting 32 5.6
2020-Apr-04 03:10 049 21 gusting 29 5.6
2020-Apr-04 03:00 044 21 gusting 31 5.6
2020-Apr-04 02:50 050 22 gusting 31 5.6
2020-Apr-04 02:40 050 21 gusting 30 5.6
2020-Apr-04 02:30 044 21 gusting 35 5.6
2020-Apr-04 02:20 048 24 gusting 33 5.6
2020-Apr-04 02:10 049 22 gusting 29 5.6
2020-Apr-04 02:00 041 19 gusting 31 5.6
2020-Apr-04 01:50 052 23 gusting 37 5.6
2020-Apr-04 01:40 047 26 gusting 36 5.6
2020-Apr-04 01:30 049 23 gusting 36 5.6
2020-Apr-04 01:20 050 23 gusting 33 5.6
2020-Apr-04 01:10 050 22 gusting 34 5.6
2020-Apr-04 01:00 048 25 gusting 37 5.6
2020-Apr-04 00:50 048 25 gusting 36 5.6
2020-Apr-04 00:40 050 24 gusting 35 6.1
2020-Apr-04 00:30 050 23 gusting 32 5.6
2020-Apr-04 00:20 047 23 gusting 33 6.1
2020-Apr-04 00:10 047 25 gusting 33 6.1
2020-Apr-04 00:00 043 23 gusting 33 6.1
2020-Apr-03 23:50 048 23 gusting 37 6.1
2020-Apr-03 23:40 048 26 gusting 35 5.6
2020-Apr-03 23:30 049 27 gusting 40 5.6
2020-Apr-03 23:20 046 26 gusting 37 6.1
2020-Apr-03 23:10 045 26 gusting 34 6.1
2020-Apr-03 23:00 044 24 gusting 37 6.1
2020-Apr-03 22:50 046 28 gusting 34 6.1
2020-Apr-03 22:40 043 25 gusting 35 6.1
2020-Apr-03 22:30 046 25 gusting 35 6.1
2020-Apr-03 22:20 042 25 gusting 37 6.1
2020-Apr-03 22:10 044 26 gusting 36 6.1
2020-Apr-03 22:00 043 25 gusting 33 6.1
2020-Apr-03 21:50 043 21 gusting 34 5.6
2020-Apr-03 21:40 046 27 gusting 34 5.6
2020-Apr-03 21:30 042 24 gusting 36 5.6
2020-Apr-03 21:20 044 26 gusting 36 5.6
2020-Apr-03 21:10 038 25 gusting 35 5.6
2020-Apr-03 21:00 040 26 gusting 38 5.6
2020-Apr-03 20:50 042 24 gusting 37 5.6
2020-Apr-03 20:40 038 24 gusting 33 5.6
2020-Apr-03 20:30 042 26 gusting 37 5.6
2020-Apr-03 20:20 043 25 gusting 36 5.6
2020-Apr-03 20:10 038 24 gusting 33 5.6
2020-Apr-03 20:00 039 24 gusting 37 5.6
2020-Apr-03 19:50 041 26 gusting 35 5.6
2020-Apr-03 19:40 041 27 gusting 36 5.6
2020-Apr-03 19:30 036 26 gusting 39 6.1
2020-Apr-03 19:20 042 26 gusting 36 6.1
2020-Apr-03 19:10 042 25 gusting 37 6.1
2020-Apr-03 19:00 046 25 gusting 33 6.1
2020-Apr-03 18:50 040 26 gusting 35 6.1
2020-Apr-03 18:40 043 26 gusting 35 6.1
2020-Apr-03 18:30 043 28 gusting 39 6.1
2020-Apr-03 18:20 038 25 gusting 38 6.1
2020-Apr-03 18:10 038 26 gusting 39 6.1
2020-Apr-03 18:00 044 26 gusting 39 6.1
2020-Apr-03 17:50 047 26 gusting 39 6.1
2020-Apr-03 17:40 041 28 gusting 39 6.1
2020-Apr-03 17:30 042 26 gusting 39 6.1
2020-Apr-03 17:20 042 30 gusting 39 6.1
2020-Apr-03 17:10 041 27 gusting 40 6.1
2020-Apr-03 17:00 044 27 gusting 39 6.1
2020-Apr-03 16:50 043 26 gusting 39 6.1
2020-Apr-03 16:40 044 30 gusting 40 6.1
2020-Apr-03 16:30 048 30 gusting 39 6.1
2020-Apr-03 16:20 047 30 gusting 44 6.1
2020-Apr-03 16:10 046 30 gusting 42 6.1
2020-Apr-03 16:00 045 29 gusting 40 6.1
2020-Apr-03 15:50 044 27 gusting 42 6.1
2020-Apr-03 15:40 040 29 gusting 41 6.1
2020-Apr-03 15:30 044 28 gusting 42 6.1
2020-Apr-03 15:20 043 29 gusting 41 6.1
2020-Apr-03 15:10 045 30 gusting 39 6.1
2020-Apr-03 15:00 041 29 gusting 39 6.1
2020-Apr-03 14:50 036 27 gusting 45 6.1
2020-Apr-03 14:40 041 27 gusting 39 6.1
2020-Apr-03 14:30 038 29 gusting 39 6.1
2020-Apr-03 14:20 039 29 gusting 39 6.1
2020-Apr-03 14:10 036 30 gusting 39 6.1
2020-Apr-03 14:00 035 30 gusting 41 6.1
2020-Apr-03 13:50 036 26 gusting 38 6.1
2020-Apr-03 13:40 034 26 gusting 36 6.1
2020-Apr-03 13:30 036 24 gusting 35 6.1
2020-Apr-03 13:20 029 26 gusting 38 6.1
2020-Apr-03 13:10 026 24 gusting 34 6.1
2020-Apr-03 13:00 026 22 gusting 33 6.1
2020-Apr-03 12:50 030 23 gusting 32 6.1
2020-Apr-03 11:30 020 21 gusting 32 6.1
2020-Apr-03 11:20 017 22 gusting 32 6.1
2020-Apr-03 11:10 015 21 gusting 31 6.1
2020-Apr-03 11:00 014 21 gusting 32 6.1
2020-Apr-03 10:50 012 21 gusting 31 6.1
2020-Apr-03 10:40 018 22 gusting 30 6.1
2020-Apr-03 10:30 011 21 gusting 30 6.1
2020-Apr-03 10:20 011 19 gusting 30 6.1
2020-Apr-03 10:10 006 16 gusting 30 6.1
2020-Apr-03 10:00 010 17 gusting 31 6.1
2020-Apr-03 09:50 007 17 gusting 30 6.1
2020-Apr-03 09:40 012 16 gusting 31 6.1
2020-Apr-03 09:30 010 16 gusting 26 6.1
2020-Apr-03 09:20 005 16 gusting 25 6.1
2020-Apr-03 09:10 007 17 gusting 27 6.1
2020-Apr-03 09:00 009 18 gusting 27 6.1
2020-Apr-03 08:50 002 15 gusting 24 6.1
2020-Apr-03 08:40 007 15 gusting 25 6.1
2020-Apr-03 08:30 009 15 gusting 26 6.1
2020-Apr-03 08:20 004 16 gusting 26 6.1
2020-Apr-03 08:10 358 17 gusting 27 6.1
2020-Apr-03 08:00 004 14 gusting 23 6.1
2020-Apr-03 07:50 001 14 gusting 25 6.1
2020-Apr-03 07:40 6.1
2020-Apr-03 07:30 358 13 gusting 23 6.1
2020-Apr-03 07:20 004 15 gusting 25 6.1
2020-Apr-03 07:10 359 14 gusting 24 6.1
2020-Apr-03 07:00 359 16 gusting 25 6.1
2020-Apr-03 06:50 5.6
2020-Apr-03 06:40 001 15 gusting 26 5.6
2020-Apr-03 06:30 358 15 gusting 27 5.6
2020-Apr-03 06:20 354 18 gusting 25 5.6
2020-Apr-03 06:10 359 16 gusting 23 5.6
2020-Apr-03 06:00 356 16 gusting 24 5.6
2020-Apr-03 05:50 001 16 gusting 27 5.6
2020-Apr-03 05:40 356 14 gusting 26 5.6
2020-Apr-03 05:30 5.6
2020-Apr-03 05:20 356 15 gusting 26 5.6
2020-Apr-03 05:10 359 16 gusting 23 5.6
2020-Apr-03 05:00 358 16 gusting 25 5.6
2020-Apr-03 04:50 358 17 gusting 26 5.6
2020-Apr-03 04:40 356 17 gusting 26 5.6
2020-Apr-03 04:30 359 15 gusting 27 5.6
2020-Apr-03 04:20 5.6
2020-Apr-03 04:10 359 15 gusting 26 5.6
2020-Apr-03 04:00 355 14 gusting 25 5.6
2020-Apr-03 03:50 356 16 gusting 29 5.6
2020-Apr-03 03:40 353 18 gusting 29 5.6
2020-Apr-03 03:30 355 17 gusting 27 5.0
2020-Apr-03 03:20 356 15 gusting 26 5.0
2020-Apr-03 03:10 352 15 gusting 26 5.0
2020-Apr-03 03:00 355 15 gusting 28 5.0
2020-Apr-03 02:50 359 15 gusting 25 5.0
2020-Apr-03 02:40 357 18 gusting 26 5.0
2020-Apr-03 02:30 353 14 gusting 25 5.0
2020-Apr-03 02:20 357 16 gusting 23 5.0
2020-Apr-03 02:10 353 14 gusting 26 5.0
2020-Apr-03 02:00 350 13 gusting 22 5.0
2020-Apr-03 01:50 353 13 gusting 26 5.0
2020-Apr-03 01:40 348 14 gusting 25 5.0
2020-Apr-03 01:30 353 13 gusting 24 5.0
2020-Apr-03 01:20 352 13 gusting 22 5.0
2020-Apr-03 01:10 350 13 gusting 20 5.0
2020-Apr-03 01:00 352 13 gusting 24 5.0
2020-Apr-03 00:50 350 15 gusting 23 5.0
2020-Apr-03 00:40 346 14 gusting 25 5.0
2020-Apr-03 00:30 352 13 gusting 22 5.0
2020-Apr-03 00:20 348 16 gusting 24 5.0
2020-Apr-03 00:10 349 13 gusting 24 5.0
2020-Apr-03 00:00 347 13 gusting 23 5.0
2020-Apr-02 23:50 345 13 gusting 22 5.0
2020-Apr-02 23:40 347 15 gusting 22 5.0
2020-Apr-02 23:30 346 13 gusting 20 5.0
2020-Apr-02 23:20 347 13 gusting 26 5.6
2020-Apr-02 23:10 349 13 gusting 25 5.6
2020-Apr-02 23:00 347 13 gusting 22 5.6
2020-Apr-02 22:50 344 13 gusting 26 5.6
2020-Apr-02 22:40 346 14 gusting 24 5.6
2020-Apr-02 22:30 348 12 gusting 21 5.6
2020-Apr-02 22:20 347 14 gusting 23 5.6
2020-Apr-02 18:00 355 13 gusting 23 6.7
2020-Apr-02 17:30
2020-Apr-02 17:20
2020-Apr-02 17:10
2020-Apr-02 17:00
2020-Apr-02 16:00 6.7
2020-Apr-02 15:00